Location: Unspecified
(48.7436°N, 0.0000°E)
Time: 08:25:22
(UTC+00:00)

ISS - Visible Passes

Search period start: 26 June 2019 00:00
Search period end: 06 July 2019 00:00
Orbit: 407 x 419 km, 51.6° (Epoch: 26 June)

Date Brightness Start Highest point End Pass type
(mag) Time Alt. Az. Time Alt. Az. Time Alt. Az.
02 Jul -1.8 02:58:22 10° S 03:00:47 19° SE 03:03:11 10° E visible
03 Jul -1.4 02:10:18 11° SSE 02:11:25 12° SE 02:12:46 10° ESE visible
04 Jul -3.0 02:55:18 13° SW 02:58:00 39° SSE 03:01:08 10° ENE visible
05 Jul -2.4 02:07:26 21° S 02:08:33 25° SE 02:11:21 10° E visible
